EW0415 Weather Reports


time (UTC)temp
F
wind
direction
speed
knots
gust
knots
rain 1hr
in
rain 24hr
in
rain mn
in
humidity
%
barometer
mb
20260831095018 63 94 0.9 3.5 0.00 0.00 0.00 52 1026.4
20260831094539 63 0 0.0 1.7 0.00 0.00 0.00 52 1026.3
20260831094018 63 0 0.0 3.5 0.00 0.00 0.00 51 1026.4
20260831093518 63 96 0.0 3.5 0.00 0.00 0.00 51 1026.4
20260831093033 63 96 0.9 3.5 0.00 0.00 0.00 51 1026.2
20260831092519 63 96 0.9 2.6 0.00 0.00 0.00 50 1026.1
20260831092018 64 98 0.0 1.7 0.00 0.00 0.00 50 1026.2
20260831091543 64 0 0.0 0.0 0.00 0.00 0.00 49 1026.3
20260831091021 65 0 0.0 0.0 0.00 0.00 0.00 49 1026.1
20260831090519 65 0 0.0 0.0 0.00 0.00 0.00 48 1026.1
20260831090039 66 0 0.0 0.0 0.00 0.00 0.00 49 1026.2
20260831085521 66 0 0.0 0.0 0.00 0.00 0.00 48 1026.2
20260831085015 66 0 0.0 0.0 0.00 0.00 0.00 48 1026.3
20260831084535 67 0 0.0 0.0 0.00 0.00 0.00 48 1026.2
20260831084019 67 0 0.0 0.0 0.00 0.00 0.00 47 1026.2
20260831083520 68 0 0.0 0.0 0.00 0.00 0.00 47 1026.2
20260831083038 68 0 0.0 0.0 0.00 0.00 0.00 47 1026.3
20260831082516 68 0 0.0 1.7 0.00 0.00 0.00 46 1026.3
20260831082016 69 0 0.0 2.6 0.00 0.00 0.00 46 1026.3
20260831081534 69 0 0.0 2.6 0.00 0.00 0.00 45 1026.2
20260831081018 69 62 0.0 2.6 0.00 0.00 0.00 45 1026.3
20260831080516 70 61 0.0 4.3 0.00 0.00 0.00 44 1026.2
20260831080040 70 63 0.9 4.3 0.00 0.00 0.00 44 1026.3
20260831075520 70 75 1.7 3.5 0.00 0.00 0.00 44 1026.2
20260831075020 71 68 0.9 6.1 0.00 0.00 0.00 43 1026.1
20260831074536 71 67 1.7 6.1 0.00 0.00 0.00 43 1026.1
20260831074019 71 69 1.7 4.3 0.00 0.00 0.00 42 1026.0
20260831073517 71 70 1.7 4.3 0.00 0.00 0.00 42 1026.1
20260831073038 72 82 1.7 3.5 0.00 0.00 0.00 42 1026.2
20260831072516 72 83 0.9 7.0 0.00 0.00 0.00 42 1026.2
20260831072017 72 85 1.7 8.7 0.00 0.00 0.00 42 1026.2
20260831071542 72 44 2.6 8.7 0.00 0.00 0.00 42 1026.1
20260831071016 72 336 0.9 4.3 0.00 0.00 0.00 42 1026.2
20260831070519 73 355 0.9 4.3 0.00 0.00 0.00 42 1026.2
20260831070035 73 352 0.9 5.2 0.00 0.00 0.00 42 1026.4
20260831065520 73 355 1.7 5.2 0.00 0.00 0.00 40 1026.2
20260831065019 73 355 1.7 7.0 0.00 0.00 0.00 40 1026.5
20260831064531 73 350 1.7 7.0 0.00 0.00 0.00 42 1026.5
20260831064018 73 350 1.7 7.0 0.00 0.00 0.00 41 1026.6
20260831063518 73 350 2.6 7.0 0.00 0.00 0.00 41 1026.8
20260831063034 73 339 2.6 5.2 0.00 0.00 0.00 41 1026.8
20260831062518 73 336 2.6 5.2 0.00 0.00 0.00 41 1027.0
20260831062022 74 315 0.9 5.2 0.00 0.00 0.00 41 1027.0
20260831061535 74 346 2.6 7.0 0.00 0.00 0.00 41 1027.0
20260831061019 74 60 1.7 7.0 0.00 0.00 0.00 40 1027.2
20260831060517 74 57 2.6 8.7 0.00 0.00 0.00 37 1027.2
20260831060040 74 101 2.6 8.7 0.00 0.00 0.00 38 1027.1
20260831055521 74 53 2.6 8.7 0.00 0.00 0.00 36 1027.2
20260831055018 74 28 1.7 7.0 0.00 0.00 0.00 37 1027.2
20260831054535 74 348 2.6 7.0 0.00 0.00 0.00 37 1027.2
20260831054023 74 28 2.6 9.6 0.00 0.00 0.00 38 1027.3
20260831053516 74 351 1.7 9.6 0.00 0.00 0.00 38 1027.2
20260831053034 74 92 2.6 7.8 0.00 0.00 0.00 38 1027.3
20260831052521 74 150 2.6 7.8 0.00 0.00 0.00 37 1027.3
20260831052018 74 33 2.6 7.8 0.00 0.00 0.00 39 1027.4
20260831051550 74 38 2.6 6.1 0.00 0.00 0.00 39 1027.6
20260831051016 74 30 2.6 7.8 0.00 0.00 0.00 38 1027.5
20260831050519 74 63 2.6 7.8 0.00 0.00 0.00 37 1027.7
20260831050036 74 32 1.7 8.7 0.00 0.00 0.00 37 1027.8
20260831045519 74 355 2.6 8.7 0.00 0.00 0.00 37 1027.8
20260831045019 74 79 1.7 9.6 0.00 0.00 0.00 37 1027.8
20260831044537 74 85 3.5 9.6 0.00 0.00 0.00 36 1027.9
20260831044016 74 29 1.7 5.2 0.00 0.00 0.00 37 1027.9
20260831043518 74 27 1.7 7.0 0.00 0.00 0.00 37 1027.9
20260831043034 74 28 1.7 7.0 0.00 0.00 0.00 35 1028.1
20260831042519 74 29 3.5 7.8 0.00 0.00 0.00 35 1028.3
20260831042017 74 28 2.6 7.8 0.00 0.00 0.00 36 1028.4
20260831041534 75 22 2.6 8.7 0.00 0.00 0.00 36 1028.4
20260831041019 74 355 2.6 8.7 0.00 0.00 0.00 37 1028.3
20260831040518 74 360 3.5 8.7 0.00 0.00 0.00 37 1028.4
20260831040037 74 335 1.7 7.8 0.00 0.00 0.00 38 1028.5
20260831035520 74 339 2.6 7.8 0.00 0.00 0.00 39 1028.5
20260831035020 74 340 2.6 7.8 0.00 0.00 0.00 38 1028.6
20260831034542 74 341 1.7 7.8 0.00 0.00 0.00 37 1029.0
20260831034019 74 334 1.7 7.0 0.00 0.00 0.00 38 1029.0
20260831033518 74 338 1.7 7.0 0.00 0.00 0.00 40 1029.1
20260831033035 74 340 2.6 7.8 0.00 0.00 0.00 39 1029.2
20260831032516 74 338 1.7 7.8 0.00 0.00 0.00 40 1029.4
20260831032016 74 333 2.6 7.8 0.00 0.00 0.00 39 1029.6
20260831031536 74 348 1.7 7.8 0.00 0.00 0.00 40 1029.6
20260831031019 73 360 1.7 7.8 0.00 0.00 0.00 41 1029.8
20260831030518 73 22 1.7 7.8 0.00 0.00 0.00 42 1029.9
20260831030035 73 26 2.6 7.8 0.00 0.00 0.00 45 1030.0
20260831025518 73 26 1.7 7.0 0.00 0.00 0.00 45 1030.1
20260831025015 73 355 1.7 7.0 0.00 0.00 0.00 46 1030.2
20260831024536 73 355 1.7 5.2 0.00 0.00 0.00 47 1030.3
20260831024020 72 355 1.7 5.2 0.00 0.00 0.00 46 1030.5
20260831023520 72 355 2.6 5.2 0.00 0.00 0.00 46 1030.6
20260831023035 72 360 1.7 8.7 0.00 0.00 0.00 46 1030.7
20260831022516 72 17 2.6 8.7 0.00 0.00 0.00 45 1030.8
20260831022016 72 30 3.5 8.7 0.00 0.00 0.00 44 1031.0
20260831021534 71 302 2.6 7.8 0.00 0.00 0.00 47 1031.0
20260831021020 71 205 1.7 4.3 0.00 0.00 0.00 50 1031.0
20260831020516 70 205 1.7 4.3 0.00 0.00 0.00 51 1031.1
20260831020035 70 195 0.0 4.3 0.00 0.00 0.00 56 1031.1
20260831015518 69 195 0.0 4.3 0.00 0.00 0.00 56 1031.1
20260831015018 69 0 0.0 3.5 0.00 0.00 0.00 58 1031.2
20260831014537 68 192 0.9 3.5 0.00 0.00 0.00 58 1031.4
20260831014020 68 192 0.9 4.3 0.00 0.00 0.00 59 1031.4
20260831013519 67 191 0.9 4.3 0.00 0.00 0.00 61 1031.5
20260831013033 67 190 0.9 2.6 0.00 0.00 0.00 62 1031.5
20260831012519 66 190 0.0 3.5 0.00 0.00 0.00 64 1031.7
20260831012018 66 190 0.9 3.5 0.00 0.00 0.00 65 1031.7
20260831011543 65 190 1.7 3.5 0.00 0.00 0.00 66 1031.7
20260831011015 65 0 0.0 2.6 0.00 0.00 0.00 68 1031.6
20260831010519 64 0 0.0 3.5 0.00 0.00 0.00 68 1031.7
20260831010042 64 184 0.9 3.5 0.00 0.00 0.00 69 1031.8
20260831005520 63 185 0.9 3.5 0.00 0.00 0.00 70 1031.7
20260831005019 63 0 0.0 2.6 0.00 0.00 0.00 71 1031.8
20260831004532 62 184 0.0 2.6 0.00 0.00 0.00 72 1031.9
20260831004023 62 184 0.0 2.6 0.00 0.00 0.00 74 1031.8
20260831003520 61 184 0.9 2.6 0.00 0.00 0.00 75 1031.9
20260831003037 60 0 0.9 2.6 0.00 0.00 0.00 77 1031.9
20260831002518 60 184 0.9 2.6 0.00 0.00 0.00 79 1031.9
20260831002018 59 184 0.0 2.6 0.00 0.00 0.00 80 1031.9
20260831001537 59 184 0.0 2.6 0.00 0.00 0.00 82 1031.9
20260831001021 58 184 0.9 2.6 0.00 0.00 0.00 83 1031.9
20260831000519 58 0 0.9 2.6 0.00 0.00 0.00 84 1031.9
20260831000034 57 190 0.0 2.6 0.00 0.00 0.00 86 1032.0
20260830235519 57 0 0.0 1.7 0.00 0.00 0.00 87 1032.1
20260830235016 57 0 0.0 0.9 0.00 0.00 0.00 88 1032.0
20260830234541 56 0 0.0 1.7 0.00 0.00 0.00 88 1032.0
20260830234016 55 0 0.0 1.7 0.00 0.00 0.00 88 1032.1
20260830233518 55 0 0.0 1.7 0.00 0.00 0.00 89 1032.1
20260830233035 55 0 0.0 1.7 0.00 0.00 0.00 89 1032.2
20260830232516 54 0 0.0 1.7 0.00 0.00 0.00 89 1032.2
20260830232018 54 0 0.0 2.6 0.00 0.00 0.00 89 1032.2
20260830231536 54 193 0.0 2.6 0.00 0.00 0.00 89 1032.3
20260830231021 53 193 0.0 1.7 0.00 0.00 0.00 89 1032.2
20260830230519 53 0 0.0 2.6 0.00 0.00 0.00 89 1032.3
20260830230033 52 0 0.0 2.6 0.00 0.00 0.00 89 1032.2
20260830225516 52 0 0.0 0.0 0.00 0.00 0.00 90 1032.3
20260830225022 51 0 0.0 0.0 0.00 0.00 0.00 89 1032.3
20260830224535 50 0 0.0 0.0 0.00 0.00 0.00 89 1032.3
20260830224019 50 0 0.0 0.0 0.00 0.00 0.00 89 1032.2
20260830223517 49 0 0.0 0.0 0.00 0.00 0.00 89 1032.2
20260830223032 49 0 0.0 0.0 0.00 0.00 0.00 89 1032.2
20260830222516 48 0 0.0 0.0 0.00 0.00 0.00 89 1032.2
20260830222015 47 0 0.0 0.0 0.00 0.00 0.00 89 1032.3
20260830221545 46 0 0.0 0.0 0.00 0.00 0.00 88 1032.3
20260830221020 45 0 0.0 0.0 0.00 0.00 0.00 88 1032.2
20260830220516 44 0 0.0 0.0 0.00 0.00 0.00 88 1032.1
20260830220035 44 0 0.0 0.0 0.00 0.00 0.00 88 1032.1
20260830215522 43 0 0.0 0.0 0.00 0.00 0.00 87 1032.0
20260830215016 43 0 0.0 0.0 0.00 0.00 0.00 87 1031.9
20260830214532 43 0 0.0 0.0 0.00 0.00 0.00 87 1031.9
20260830214021 43 0 0.0 0.0 0.00 0.00 0.00 86 1031.9
20260830213520 43 0 0.0 0.0 0.00 0.00 0.00 87 1031.9
20260830213032 43 0 0.0 0.0 0.00 0.00 0.00 86 1032.0
20260830212519 43 0 0.0 0.0 0.00 0.00 0.00 86 1031.9
20260830212016 43 0 0.0 0.0 0.00 0.00 0.00 86 1031.8
20260830211531 43 0 0.0 0.0 0.00 0.00 0.00 86 1031.8
20260830211018 43 0 0.0 0.0 0.00 0.00 0.00 86 1031.8
20260830210516 43 0 0.0 0.0 0.00 0.00 0.00 86 1031.8
20260830210036 43 0 0.0 0.0 0.00 0.00 0.00 86 1031.9
20260830205515 43 0 0.0 0.0 0.00 0.00 0.00 86 1032.0
20260830205015 43 0 0.0 1.7 0.00 0.00 0.00 86 1032.1
20260830204533 43 0 0.0 1.7 0.00 0.00 0.00 86 1032.1
20260830204019 42 0 0.0 2.6 0.00 0.00 0.00 86 1031.9
20260830203519 42 207 0.9 2.6 0.00 0.00 0.00 86 1031.8
20260830203034 42 0 0.0 0.0 0.00 0.00 0.00 86 1031.6
20260830202519 43 0 0.0 0.0 0.00 0.00 0.00 85 1031.6
20260830202017 42 0 0.0 0.9 0.00 0.00 0.00 85 1031.7
20260830201533 43 0 0.0 1.7 0.00 0.00 0.00 85 1031.5
20260830201016 42 0 0.0 1.7 0.00 0.00 0.00 85 1031.5
20260830200515 42 0 0.0 0.0 0.00 0.00 0.00 85 1031.5
20260830200044 42 0 0.0 0.0 0.00 0.00 0.00 85 1031.6
20260830195518 42 0 0.0 0.0 0.00 0.00 0.00 85 1031.5
20260830195020 43 0 0.0 0.0 0.00 0.00 0.00 85 1031.5
20260830194537 42 0 0.0 0.0 0.00 0.00 0.00 85 1031.4
20260830194016 43 0 0.0 0.0 0.00 0.00 0.00 85 1031.4
20260830193518 43 0 0.0 0.0 0.00 0.00 0.00 85 1031.4
20260830193032 43 0 0.0 0.0 0.00 0.00 0.00 85 1031.3
20260830192522 43 0 0.0 0.0 0.00 0.00 0.00 85 1031.3
20260830192018 43 0 0.0 0.0 0.00 0.00 0.00 84 1031.2
20260830191534 43 0 0.0 0.0 0.00 0.00 0.00 84 1031.3
20260830191018 43 0 0.0 0.0 0.00 0.00 0.00 84 1031.3
20260830190515 43 0 0.0 0.0 0.00 0.00 0.00 85 1031.3
20260830190043 43 0 0.0 0.0 0.00 0.00 0.00 85 1031.4
20260830185519 43 0 0.0 0.0 0.00 0.00 0.00 84 1031.5
20260830185018 43 0 0.0 0.0 0.00 0.00 0.00 84 1031.5
20260830184533 43 0 0.0 0.0 0.00 0.00 0.00 84 1031.5
20260830184019 43 0 0.0 0.0 0.00 0.00 0.00 84 1031.5
20260830183520 43 0 0.0 0.0 0.00 0.00 0.00 84 1031.6
20260830183038 43 0 0.0 0.0 0.00 0.00 0.00 84 1031.5
20260830182519 44 0 0.0 0.0 0.00 0.00 0.00 84 1031.6
20260830182017 44 0 0.0 0.0 0.00 0.00 0.00 84 1031.7
20260830181534 44 0 0.0 0.0 0.00 0.00 0.00 84 1031.7
20260830181017 44 0 0.0 0.0 0.00 0.00 0.00 84 1031.7
20260830180517 44 0 0.0 0.0 0.00 0.00 0.00 84 1031.7
20260830180034 44 0 0.0 0.0 0.00 0.00 0.00 83 1031.9
20260830175515 44 0 0.0 0.0 0.00 0.00 0.00 84 1031.9
20260830175017 44 0 0.0 0.0 0.00 0.00 0.00 84 1031.9
20260830174541 44 0 0.0 0.0 0.00 0.00 0.00 84 1031.9
20260830174020 44 0 0.0 0.0 0.00 0.00 0.00 83 1031.9
20260830173518 44 0 0.0 0.0 0.00 0.00 0.00 83 1032.0
20260830173034 44 0 0.0 0.0 0.00 0.00 0.00 83 1032.0
20260830172520 44 0 0.0 0.0 0.00 0.00 0.00 83 1032.1
20260830172019 44 0 0.0 0.0 0.00 0.00 0.00 83 1032.2
20260830171534 44 0 0.0 0.0 0.00 0.00 0.00 83 1032.1
20260830171020 44 0 0.0 0.0 0.00 0.00 0.00 83 1032.3
20260830170520 44 0 0.0 0.0 0.00 0.00 0.00 83 1032.1
20260830170035 44 0 0.0 0.0 0.00 0.00 0.00 82 1032.2
20260830165518 44 0 0.0 0.0 0.00 0.00 0.00 82 1032.4
20260830165015 44 0 0.0 0.0 0.00 0.00 0.00 82 1032.5
20260830164534 44 0 0.0 0.0 0.00 0.00 0.00 82 1032.4
20260830164015 44 0 0.0 0.0 0.00 0.00 0.00 81 1032.5
20260830163515 44 0 0.0 0.0 0.00 0.00 0.00 81 1032.5
20260830163036 44 0 0.0 0.0 0.00 0.00 0.00 81 1032.6
20260830162519 44 0 0.0 0.0 0.00 0.00 0.00 81 1032.6
20260830162019 45 0 0.0 0.9 0.00 0.00 0.00 81 1032.7
20260830161532 45 0 0.0 0.9 0.00 0.00 0.00 81 1032.8
20260830161018 45 0 0.0 0.9 0.00 0.00 0.00 81 1032.8
20260830160517 45 0 0.0 0.0 0.00 0.00 0.00 81 1032.9
20260830160041 45 0 0.0 0.0 0.00 0.00 0.00 81 1032.9
20260830155516 45 0 0.0 0.0 0.00 0.00 0.00 81 1032.8
20260830155017 45 0 0.0 0.0 0.00 0.00 0.00 80 1032.9
20260830154532 45 0 0.0 0.0 0.00 0.00 0.00 80 1033.0
20260830154023 45 0 0.0 0.0 0.00 0.00 0.00 80 1032.8
20260830153521 45 0 0.0 0.0 0.00 0.00 0.00 80 1032.9
20260830153036 45 0 0.0 0.9 0.00 0.00 0.00 80 1033.0
20260830152519 46 0 0.0 0.9 0.00 0.00 0.00 80 1033.0
20260830152019 46 0 0.0 0.9 0.00 0.00 0.00 79 1033.0
20260830151534 46 0 0.0 0.0 0.00 0.00 0.00 79 1033.2
20260830151019 46 0 0.0 0.0 0.00 0.00 0.00 79 1033.2
20260830150517 46 0 0.0 0.0 0.00 0.00 0.00 79 1033.3
20260830150035 46 0 0.0 0.0 0.00 0.00 0.00 79 1033.4
20260830145516 46 0 0.0 0.0 0.00 0.00 0.00 79 1033.3
20260830145016 47 0 0.0 0.0 0.00 0.00 0.00 79 1033.3
20260830144533 47 0 0.0 0.0 0.00 0.00 0.00 79 1033.5
20260830144018 47 0 0.0 0.0 0.00 0.00 0.00 79 1033.4
20260830143524 47 0 0.0 0.0 0.00 0.00 0.00 79 1033.4
20260830143036 47 0 0.0 0.0 0.00 0.00 0.00 79 1033.4
20260830142521 47 0 0.0 0.9 0.00 0.00 0.00 78 1033.4
20260830142019 47 0 0.0 0.9 0.00 0.00 0.00 78 1033.5
20260830141535 47 0 0.0 0.9 0.00 0.00 0.00 78 1033.8
20260830141018 47 0 0.0 0.9 0.00 0.00 0.00 78 1033.8
20260830140518 48 0 0.0 0.9 0.00 0.00 0.00 77 1033.9
20260830140033 48 0 0.0 0.0 0.00 0.00 0.00 77 1033.9
20260830135516 48 0 0.0 0.9 0.00 0.00 0.00 77 1034.0
20260830135020 48 0 0.0 0.9 0.00 0.00 0.00 76 1034.1
20260830134540 48 0 0.0 0.0 0.00 0.00 0.00 76 1034.1
20260830134019 48 0 0.0 0.0 0.00 0.00 0.00 76 1034.0
20260830133517 48 0 0.0 0.0 0.00 0.00 0.00 76 1034.1
20260830133034 49 0 0.0 0.0 0.00 0.00 0.00 76 1033.9
20260830132516 49 0 0.0 0.0 0.00 0.00 0.00 75 1033.9
20260830132015 49 0 0.0 0.0 0.00 0.00 0.00 75 1033.9
20260830131534 49 0 0.0 0.0 0.00 0.00 0.00 75 1034.0
20260830131019 49 0 0.0 0.0 0.00 0.00 0.00 75 1034.0
20260830130518 49 0 0.0 0.0 0.00 0.00 0.00 75 1034.0
20260830130041 49 0 0.0 0.9 0.00 0.00 0.00 75 1033.8
20260830125519 50 0 0.0 0.9 0.00 0.00 0.00 74 1033.9
20260830125019 50 0 0.0 0.9 0.00 0.00 0.00 74 1033.8
20260830124533 50 0 0.0 0.9 0.00 0.00 0.00 74 1033.8
20260830124017 50 0 0.0 0.9 0.00 0.00 0.00 74 1033.8
20260830123518 50 0 0.0 0.0 0.00 0.00 0.00 73 1033.8
20260830123034 50 0 0.0 0.0 0.00 0.00 0.00 73 1033.8
20260830122515 51 0 0.0 0.0 0.00 0.00 0.00 73 1033.7
20260830122016 51 0 0.0 0.0 0.00 0.00 0.00 73 1033.6
20260830121537 51 0 0.0 0.0 0.00 0.00 0.00 73 1033.7
20260830121017 51 0 0.0 0.0 0.00 0.00 0.00 73 1033.8
20260830120517 51 0 0.0 0.0 0.00 0.00 0.00 73 1033.7
20260830120035 52 0 0.0 0.0 0.00 0.00 0.00 73 1033.7
20260830115519 52 0 0.0 0.9 0.00 0.00 0.00 73 1033.7
20260830115022 52 0 0.0 0.9 0.00 0.00 0.00 72 1033.5
20260830114534 52 0 0.0 0.0 0.00 0.00 0.00 72 1033.4
20260830114023 52 0 0.0 1.7 0.00 0.00 0.00 72 1033.5
20260830113518 52 0 0.0 1.7 0.00 0.00 0.00 72 1033.4
20260830113031 52 0 0.0 0.9 0.00 0.00 0.00 72 1033.4
20260830112515 52 0 0.0 0.9 0.00 0.00 0.00 71 1033.4
20260830112015 53 0 0.0 0.9 0.00 0.00 0.00 71 1033.4
20260830111533 53 0 0.0 0.0 0.00 0.00 0.00 71 1033.4
20260830111018 53 0 0.0 0.0 0.00 0.00 0.00 71 1033.3
20260830110517 53 0 0.0 0.0 0.00 0.00 0.00 71 1033.2
20260830110038 54 0 0.0 0.0 0.00 0.00 0.00 71 1033.2
20260830105519 54 0 0.0 1.7 0.00 0.00 0.00 71 1033.1
20260830105020 54 0 0.0 1.7 0.00 0.00 0.00 71 1033.0
20260830104553 54 0 0.0 0.0 0.00 0.00 0.00 70 1033.0
20260830104019 54 0 0.0 0.0 0.00 0.00 0.00 70 1032.9
20260830103521 55 0 0.0 0.0 0.00 0.00 0.00 70 1033.0
20260830103033 55 0 0.0 0.0 0.00 0.00 0.00 70 1033.0
20260830102516 55 0 0.0 1.7 0.00 0.00 0.00 69 1032.9
20260830102018 55 0 0.0 1.7 0.00 0.00 0.00 69 1032.9
20260830101533 55 0 0.0 1.7 0.00 0.00 0.00 69 1032.9
20260830101019 56 0 0.0 1.7 0.00 0.00 0.00 68 1032.9
20260830100519 56 0 0.0 1.7 0.00 0.00 0.00 67 1032.9
20260830100030 56 0 0.0 0.0 0.00 0.00 0.00 66 1032.8
20260830095519 56 0 0.0 0.0 0.00 0.00 0.00 66 1032.6